When you browse on this site, cookies collect data to enhance your experience and personalize the content and advertising you see.
Visit our Privacy Policy to learn more. By continuing to use the site, you agree to this use of cookies and data.

Meteo orario Worcester

Oggi, 7 Luglio, Martedi

Tempo Temperatura Precipitazioni Vento Pressione Umidità
00:00 +9°C° 0 mm 2 m/s 762 mm Hg 91%
01:00 +10°C° 0 mm 2 m/s 762 mm Hg 89%
02:00 +10°C° 0 mm 2 m/s 762 mm Hg 88%
03:00 +12°C° 0 mm 2 m/s 761 mm Hg 86%
04:00 +12°C° 0 mm 2 m/s 761 mm Hg 86%
05:00 +13°C° 0 mm 2 m/s 761 mm Hg 87%
06:00 +14°C° 0 mm 2 m/s 761 mm Hg 91%
07:00 +13°C° 0.1 mm 3 m/s 761 mm Hg 88%
08:00 +14°C° 0.1 mm 3 m/s 761 mm Hg 85%
09:00 +14°C° 0.1 mm 3 m/s 761 mm Hg 83%
10:00 +14°C° 0.1 mm 3 m/s 760 mm Hg 83%
11:00 +14°C° 0.1 mm 3 m/s 760 mm Hg 83%
12:00 +14°C° 0.1 mm 4 m/s 760 mm Hg 83%
13:00 +14°C° 0.2 mm 3 m/s 759 mm Hg 83%
14:00 +14°C° 0.2 mm 3 m/s 759 mm Hg 84%
15:00 +15°C° 0.2 mm 2 m/s 759 mm Hg 84%
16:00 +14°C° 0.6 mm 3 m/s 758 mm Hg 88%
17:00 +13°C° 0.6 mm 3 m/s 757 mm Hg 91%
18:00 +13°C° 0.6 mm 3 m/s 757 mm Hg 94%
19:00 +13°C° 0.4 mm 4 m/s 757 mm Hg 95%
20:00 +14°C° 0.4 mm 4 m/s 757 mm Hg 95%
21:00 +14°C° 0.4 mm 5 m/s 757 mm Hg 95%
22:00 +15°C° 0.5 mm 5 m/s 756 mm Hg 95%
23:00 +15°C° 0.5 mm 5 m/s 756 mm Hg 95%

Domani, 8 Luglio, Mercoledi

Tempo Temperatura Precipitazioni Vento Pressione Umidità
00:00 +15°C° 0.5 mm 5 m/s 756 mm Hg 95%
01:00 +15°C° 0.4 mm 4 m/s 755 mm Hg 96%
02:00 +15°C° 0.4 mm 4 m/s 755 mm Hg 96%
03:00 +16°C° 0.4 mm 3 m/s 755 mm Hg 96%
04:00 +16°C° 0.1 mm 3 m/s 755 mm Hg 96%
05:00 +14°C° 0.1 mm 3 m/s 755 mm Hg 96%
06:00 +15°C° 0.1 mm 2 m/s 755 mm Hg 96%
07:00 +16°C° 0.1 mm 2 m/s 756 mm Hg 95%
08:00 +16°C° 0.1 mm 2 m/s 756 mm Hg 94%
09:00 +16°C° 0.1 mm 2 m/s 757 mm Hg 93%
10:00 +17°C° 0.1 mm 2 m/s 757 mm Hg 89%
11:00 +17°C° 0.1 mm 2 m/s 757 mm Hg 85%
12:00 +18°C° 0.1 mm 2 m/s 757 mm Hg 81%
13:00 +19°C° 0.1 mm 1 m/s 757 mm Hg 83%
14:00 +19°C° 0.1 mm 1 m/s 757 mm Hg 85%
15:00 +19°C° 0.1 mm 1 m/s 757 mm Hg 87%
16:00 +18°C° 0.2 mm 1 m/s 757 mm Hg 89%
17:00 +18°C° 0.2 mm 1 m/s 757 mm Hg 92%
18:00 +16°C° 0.2 mm 1 m/s 756 mm Hg 94%
19:00 +16°C° 0.6 mm 2 m/s 756 mm Hg 95%
20:00 +16°C° 0.6 mm 2 m/s 756 mm Hg 96%
21:00 +16°C° 0.6 mm 3 m/s 756 mm Hg 97%
22:00 +16°C° 0.6 mm 3 m/s 756 mm Hg 96%
23:00 +15°C° 0.6 mm 4 m/s 756 mm Hg 96%

Dopodomani, 9 Luglio, Giovedi

Tempo Temperatura Precipitazioni Vento Pressione Umidità
00:00 +15°C° 0.6 mm 4 m/s 755 mm Hg 95%
01:00 +15°C° 0.1 mm 4 m/s 755 mm Hg 95%
02:00 +15°C° 0.1 mm 4 m/s 755 mm Hg 95%
03:00 +15°C° 0.1 mm 4 m/s 755 mm Hg 95%
04:00 +15°C° 0.1 mm 4 m/s 754 mm Hg 95%
05:00 +15°C° 0.1 mm 4 m/s 754 mm Hg 95%
06:00 +15°C° 0.1 mm 4 m/s 754 mm Hg 95%
07:00 +17°C° 0.1 mm 4 m/s 754 mm Hg 95%
08:00 +17°C° 0.1 mm 4 m/s 754 mm Hg 94%
09:00 +17°C° 0.1 mm 5 m/s 754 mm Hg 94%
10:00 +18°C° 0.1 mm 4 m/s 754 mm Hg 92%
11:00 +18°C° 0.1 mm 4 m/s 753 mm Hg 91%
12:00 +19°C° 0.1 mm 4 m/s 753 mm Hg 89%
13:00 +19°C° 0.1 mm 5 m/s 753 mm Hg 89%
14:00 +19°C° 0.1 mm 5 m/s 753 mm Hg 89%
15:00 +19°C° 0.1 mm 5 m/s 753 mm Hg 88%
16:00 +19°C° 0.1 mm 5 m/s 753 mm Hg 88%
17:00 +18°C° 0.1 mm 4 m/s 753 mm Hg 88%
18:00 +18°C° 0.1 mm 4 m/s 753 mm Hg 89%
19:00 +17°C° 0.1 mm 4 m/s 753 mm Hg 89%
20:00 +15°C° 0.1 mm 4 m/s 754 mm Hg 90%
21:00 +14°C° 0.1 mm 4 m/s 754 mm Hg 91%
22:00 +13°C° 0 mm 4 m/s 754 mm Hg 91%
23:00 +12°C° 0 mm 4 m/s 755 mm Hg 92%

10 Luglio, Venerdi

Tempo Temperatura Precipitazioni Vento Pressione Umidità
00:00 +11°C° 0 mm 4 m/s 755 mm Hg 92%
01:00 +11°C° 0 mm 4 m/s 755 mm Hg 91%
02:00 +10°C° 0 mm 4 m/s 755 mm Hg 90%
03:00 +8°C° 0 mm 4 m/s 756 mm Hg 89%
04:00 +8°C° 0 mm 4 m/s 756 mm Hg 87%
05:00 +8°C° 0 mm 5 m/s 756 mm Hg 86%
06:00 +9°C° 0 mm 5 m/s 757 mm Hg 84%
07:00 +10°C° 0 mm 6 m/s 757 mm Hg 80%
08:00 +11°C° 0 mm 7 m/s 758 mm Hg 75%
09:00 +14°C° 0 mm 7 m/s 758 mm Hg 71%
10:00 +15°C° 0.1 mm 7 m/s 758 mm Hg 69%
11:00 +16°C° 0.1 mm 7 m/s 759 mm Hg 67%
12:00 +16°C° 0.1 mm 7 m/s 759 mm Hg 65%
13:00 +17°C° 0 mm 7 m/s 759 mm Hg 64%
14:00 +17°C° 0 mm 7 m/s 760 mm Hg 63%
15:00 +17°C° 0 mm 7 m/s 760 mm Hg 62%
16:00 +17°C° 0 mm 6 m/s 760 mm Hg 64%
17:00 +16°C° 0 mm 6 m/s 761 mm Hg 66%
18:00 +15°C° 0 mm 5 m/s 761 mm Hg 67%
19:00 +14°C° 0 mm 4 m/s 762 mm Hg 72%
20:00 +12°C° 0 mm 4 m/s 762 mm Hg 76%
21:00 +10°C° 0 mm 3 m/s 763 mm Hg 80%
22:00 +10°C° 0 mm 3 m/s 763 mm Hg 82%
23:00 +9°C° 0 mm 2 m/s 763 mm Hg 85%

11 Luglio, Sabato

Tempo Temperatura Precipitazioni Vento Pressione Umidità
00:00 +8°C° 0 mm 2 m/s 764 mm Hg 87%
01:00 +8°C° 0 mm 2 m/s 764 mm Hg 88%
02:00 +8°C° 0 mm 2 m/s 764 mm Hg 89%
03:00 +8°C° 0 mm 2 m/s 764 mm Hg 90%
04:00 +9°C° 0 mm 2 m/s 764 mm Hg 88%
05:00 +9°C° 0 mm 2 m/s 765 mm Hg 86%
06:00 +10°C° 0 mm 2 m/s 765 mm Hg 84%
07:00 +13°C° 0 mm 2 m/s 765 mm Hg 79%
08:00 +15°C° 0 mm 2 m/s 765 mm Hg 73%
09:00 +16°C° 0 mm 3 m/s 765 mm Hg 67%
10:00 +17°C° 0 mm 3 m/s 765 mm Hg 64%
11:00 +18°C° 0 mm 3 m/s 765 mm Hg 60%
12:00 +19°C° 0 mm 3 m/s 766 mm Hg 57%
13:00 +19°C° 0 mm 3 m/s 766 mm Hg 57%
14:00 +19°C° 0 mm 3 m/s 765 mm Hg 57%
15:00 +19°C° 0 mm 2 m/s 765 mm Hg 57%
16:00 +19°C° 0 mm 2 m/s 765 mm Hg 60%
17:00 +19°C° 0 mm 2 m/s 765 mm Hg 63%
18:00 +18°C° 0 mm 2 m/s 765 mm Hg 66%
19:00 +17°C° 0 mm 2 m/s 766 mm Hg 71%
20:00 +15°C° 0 mm 2 m/s 766 mm Hg 75%
21:00 +13°C° 0 mm 2 m/s 766 mm Hg 79%
22:00 +12°C° 0 mm 2 m/s 766 mm Hg 79%
23:00 +11°C° 0 mm 1 m/s 767 mm Hg 79%

12 Luglio, Domenica

Tempo Temperatura Precipitazioni Vento Pressione Umidità
00:00 +10°C° 0 mm 1 m/s 767 mm Hg 79%
01:00 +10°C° 0 mm 1 m/s 767 mm Hg 80%
02:00 +9°C° 0 mm 1 m/s 767 mm Hg 81%
03:00 +8°C° 0 mm 0 m/s 766 mm Hg 82%
04:00 +9°C° 0 mm 0 m/s 767 mm Hg 80%
05:00 +10°C° 0 mm 0 m/s 767 mm Hg 78%
06:00 +11°C° 0 mm 0 m/s 767 mm Hg 76%
07:00 +13°C° 0 mm 0 m/s 767 mm Hg 72%
08:00 +14°C° 0 mm 0 m/s 767 mm Hg 68%
09:00 +16°C° 0 mm 0 m/s 767 mm Hg 64%
10:00 +19°C° 0 mm 1 m/s 767 mm Hg 61%
11:00 +20°C° 0 mm 1 m/s 767 mm Hg 57%
12:00 +22°C° 0 mm 1 m/s 767 mm Hg 54%
13:00 +22°C° 0 mm 1 m/s 767 mm Hg 53%
14:00 +22°C° 0 mm 1 m/s 766 mm Hg 51%
15:00 +23°C° 0 mm 1 m/s 766 mm Hg 50%
16:00 +23°C° 0 mm 1 m/s 766 mm Hg 53%
17:00 +22°C° 0 mm 1 m/s 766 mm Hg 57%
18:00 +22°C° 0 mm 1 m/s 766 mm Hg 61%
19:00 +18°C° 0 mm 0 m/s 766 mm Hg 65%
20:00 +16°C° 0 mm 0 m/s 766 mm Hg 69%
21:00 +14°C° 0 mm 0 m/s 766 mm Hg 73%
22:00 +14°C° 0 mm 0 m/s 766 mm Hg 75%
23:00 +13°C° 0 mm 0 m/s 766 mm Hg 77%
Mostrare altro